Total_Precipitation_Accumulation
1.38 1.25 1.16 1.21 1.19 1.16 1.19 1.23 1.16 1.07 1.03 0.96 0.93 0.88 0.84 0.74 0.72 0.66 0.60 0.57 0.54 0.60 0.88 1.13 1.32 1.58 1.82 2.02 2.20 2.17 1.90 1.74 1.61 1.49 1.48 1.60 1.67 1.67 1.67 1.76 1.89 1.87 1.74
1.47 1.37 1.23 1.19 1.18 1.15 1.16 1.15 1.12 1.04 0.97 0.88 0.82 0.80 0.86 0.84 0.78 0.72 0.62 0.58 0.55 0.56 0.72 0.97 1.24 1.50 1.80 2.11 2.35 2.52 2.30 2.14 1.96 1.75 1.57 1.58 1.70 1.76 1.76 1.81 1.90 2.05 2.08
1.65 1.59 1.45 1.31 1.20 1.18 1.21 1.22 1.18 1.17 1.06 0.91 0.80 0.76 0.75 0.76 0.77 0.74 0.65 0.60 0.60 0.60 0.67 0.86 1.08 1.34 1.66 2.03 2.36 2.59 2.71 2.53 2.35 2.16 1.91 1.70 1.71 1.83 1.92 2.00 2.04 2.13 2.23
1.95 1.85 1.73 1.58 1.45 1.33 1.26 1.26 1.19 1.17 1.13 1.02 0.90 0.80 0.74 0.71 0.68 0.66 0.62 0.61 0.62 0.63 0.68 0.79 0.91 1.17 1.45 1.73 2.11 2.44 2.82 2.81 2.78 2.66 2.50 2.17 1.93 1.92 2.05 2.15 2.28 2.31 2.31
2.18 2.11 1.98 1.85 1.76 1.64 1.46 1.33 1.27 1.17 1.11 1.06 1.03 0.95 0.85 0.76 0.71 0.69 0.62 0.56 0.55 0.57 0.62 0.70 0.78 0.94 1.18 1.46 1.81 2.18 2.58 2.94 3.07 3.10 3.07 2.86 2.46 2.16 2.18 2.32 2.39 2.51 2.59
2.46 2.38 2.24 2.07 2.02 1.92 1.78 1.58 1.44 1.30 1.17 1.10 1.11 1.10 0.99 0.90 0.81 0.72 0.66 0.62 0.57 0.55 0.59 0.64 0.66 0.74 0.92 1.16 1.49 1.89 2.32 2.80 3.18 3.29 3.30 3.32 3.19 2.76 2.55 2.59 2.58 2.68 2.82
2.62 2.63 2.44 2.30 2.22 2.10 1.87 1.74 1.69 1.59 1.41 1.27 1.27 1.30 1.17 1.01 0.96 0.84 0.71 0.65 0.61 0.56 0.56 0.63 0.67 0.67 0.76 0.97 1.20 1.47 1.95 2.46 2.99 3.55 3.58 3.51 3.61 3.44 3.08 2.91 2.83 2.89 3.06
2.55 2.78 2.68 2.49 2.37 2.28 2.17 1.95 1.80 1.77 1.69 1.49 1.38 1.41 1.43 1.36 1.13 0.93 0.81 0.69 0.65 0.62 0.60 0.60 0.66 0.69 0.70 0.80 0.94 1.19 1.53 2.03 2.54 3.29 3.98 4.06 4.12 4.22 3.84 3.42 3.23 3.22 3.33
2.29 2.41 2.50 2.40 2.40 2.34 2.28 2.15 1.96 1.86 1.88 1.73 1.47 1.54 1.60 1.44 1.15 0.98 0.89 0.79 0.72 0.67 0.63 0.61 0.63 0.68 0.70 0.81 0.87 0.97 1.18 1.55 2.05 2.69 3.54 4.30 4.56 4.78 4.74 4.11 3.74 3.66 3.64
2.25 2.29 2.35 2.37 2.22 2.14 2.09 2.07 2.04 1.92 1.94 1.94 1.71 1.44 1.32 1.26 1.30 1.19 0.97 0.90 0.89 0.81 0.72 0.65 0.63 0.69 0.72 0.80 0.93 0.98 1.03 1.21 1.61 2.16 2.90 3.83 4.65 5.10 5.42 5.06 4.39 4.13 4.04
2.22 2.32 2.30 2.32 2.32 2.17 2.00 1.92 1.95 1.98 1.94 1.89 1.78 1.59 1.36 1.14 1.10 1.24 1.11 0.97 1.02 0.99 0.91 0.82 0.76 0.76 0.78 0.84 0.89 1.00 1.13 1.20 1.55 1.87 2.32 3.01 4.11 5.04 5.72 5.86 5.27 4.59 4.26
1.99 2.13 2.22 2.19 2.18 2.21 2.15 1.97 1.89 1.94 1.91 1.85 1.78 1.66 1.55 1.42 1.21 1.19 1.14 0.94 0.92 0.93 0.97 1.01 0.98 0.94 0.92 0.93 1.02 1.24 1.25 1.34 1.59 1.73 1.85 2.20 2.97 4.05 5.01 5.62 5.47 4.84 4.44
1.84 1.88 2.00 2.05 2.02 2.03 2.07 2.05 1.96 1.92 1.90 1.89 1.83 1.69 1.56 1.44 1.33 1.35 1.39 1.20 0.99 0.87 0.91 0.99 1.01 1.04 1.07 1.06 1.17 1.31 1.29 1.44 1.54 1.65 1.67 1.82 2.22 3.01 3.96 4.89 5.36 5.06 4.58
1.67 1.65 1.71 1.81 1.80 1.77 1.83 1.95 1.93 1.85 1.85 1.87 1.83 1.79 1.71 1.51 1.42 1.48 1.58 1.66 1.49 1.08 0.90 0.92 0.94 1.02 1.14 1.18 1.29 1.45 1.36 1.48 1.54 1.63 1.68 1.71 1.86 2.18 2.86 3.91 5.18 5.62 4.99
1.64 1.64 1.63 1.65 1.62 1.61 1.62 1.67 1.73 1.70 1.72 1.75 1.76 1.78 1.80 1.66 1.54 1.48 1.51 1.72 2.05 1.82 1.19 0.89 0.92 0.98 1.09 1.21 1.41 1.27 1.18 1.30 1.37 1.45 1.56 1.65 1.74 1.85 2.12 2.74 3.72 5.07 5.72
1.62 1.63 1.62 1.61 1.57 1.51 1.55 1.59 1.56 1.51 1.58 1.61 1.64 1.70 1.74 1.66 1.57 1.50 1.54 1.56 1.69 1.91 1.61 0.98 0.89 0.93 1.07 1.16 1.34 1.22 1.23 1.44 1.41 1.44 1.51 1.59 1.68 1.74 1.88 2.16 2.69 3.55 4.75
1.56 1.50 1.50 1.54 1.53 1.48 1.48 1.58 1.56 1.49 1.53 1.55 1.56 1.57 1.57 1.57 1.59 1.52 1.51 1.53 1.50 1.59 1.62 1.06 0.89 0.94 1.14 1.23 1.23 1.19 1.25 1.30 1.30 1.46 1.50 1.53 1.60 1.69 1.87 2.07 2.36 2.80 3.46
1.54 1.51 1.45 1.46 1.48 1.49 1.51 1.54 1.53 1.46 1.45 1.47 1.50 1.50 1.49 1.50 1.54 1.48 1.45 1.42 1.36 1.32 1.40 1.23 0.98 0.97 1.07 1.15 1.25 1.33 1.32 1.32 1.26 1.41 1.44 1.52 1.65 1.71 1.82 2.01 2.26 2.56 2.91
1.50 1.51 1.49 1.45 1.47 1.51 1.53 1.48 1.50 1.46 1.40 1.39 1.41 1.43 1.41 1.47 1.54 1.47 1.45 1.38 1.28 1.20 1.22 1.26 1.09 1.01 1.06 1.11 1.29 1.45 1.45 1.46 1.39 1.44 1.47 1.53 1.63 1.74 1.82 1.94 2.16 2.39 2.57
1.47 1.42 1.41 1.44 1.52 1.66 1.72 1.69 1.72 1.58 1.46 1.40 1.35 1.31 1.33 1.46 1.52 1.55 1.59 1.47 1.39 1.40 1.40 1.44 1.32 1.19 1.19 1.20 1.39 1.65 1.76 1.71 1.63 1.44 1.51 1.56 1.68 1.80 1.83 1.84 1.92 2.04 2.19
1.47 1.38 1.36 1.42 1.52 1.87 2.26 2.26 2.16 1.86 1.55 1.39 1.30 1.27 1.33 1.49 1.56 1.75 1.89 1.77 1.75 1.85 1.81 1.79 1.66 1.55 1.47 1.49 1.57 1.61 1.79 1.83 1.82 1.63 1.52 1.44 1.47 1.48 1.59 1.72 1.80 1.86 1.98
1.57 1.46 1.39 1.40 1.45 1.74 2.46 2.61 2.23 1.74 1.52 1.39 1.32 1.26 1.28 1.43 1.47 1.60 1.81 1.91 1.98 2.12 2.20 2.16 2.03 1.86 1.59 1.48 1.51 1.66 1.77 1.98 2.07 1.73 1.63 1.59 1.52 1.61 1.56 1.57 1.80 1.84 1.91
1.67 1.66 1.50 1.38 1.34 1.54 2.25 2.43 2.15 1.68 1.48 1.39 1.32 1.31 1.31 1.35 1.44 1.40 1.53 1.62 1.67 1.83 2.06 2.19 2.24 1.82 1.57 1.49 1.72 1.93 1.89 1.97 1.93 1.83 1.95 1.92 1.62 1.66 1.59 1.71 1.94 1.86 1.88
1.55 1.62 1.57 1.46 1.34 1.42 2.01 2.22 2.05 1.68 1.53 1.43 1.33 1.30 1.30 1.31 1.41 1.64 1.60 1.55 1.45 1.47 1.67 1.87 2.14 1.97 1.76 1.80 2.15 2.48 2.56 2.43 2.01 1.79 1.97 2.20 1.73 1.62 1.68 1.79 1.98 1.91 1.83
1.43 1.45 1.44 1.44 1.40 1.39 1.77 2.07 1.91 1.58 1.53 1.44 1.32 1.29 1.30 1.29 1.57 1.87 1.77 1.61 1.42 1.32 1.44 1.77 2.09 2.23 2.28 2.42 2.66 2.98 3.14 2.97 2.48 1.90 1.84 2.14 1.93 1.72 1.88 2.10 2.16 2.11 1.87
1.35 1.36 1.37 1.37 1.31 1.26 1.56 1.88 1.88 1.54 1.45 1.38 1.32 1.28 1.44 1.53 1.74 1.89 1.72 1.68 1.76 1.50 1.34 1.41 1.51 1.63 1.69 1.85 2.26 2.54 2.87 2.99 2.61 2.36 1.95 2.08 2.19 2.21 2.52 2.36 2.20 2.04 1.83